Location: Newark
(54.6833°N, 25.2833°E)
Time: 10:46:33
(UTC+00:00)

Tiros 1 despin weight - Visible Passes

Search period start: 14 November 2019 00:00
Search period end: 24 November 2019 00:00
Orbit: 594 x 642 km, 48.2° (Epoch: 14 November)

Date Brightness Start Highest point End Pass type
(mag) Time Alt. Az. Time Alt. Az. Time Alt. Az.
14 Nov ? 16:20:25 10° WSW 16:24:32 36° S 16:26:33 24° SE visible
14 Nov ? 18:01:44 10° WSW 18:03:37 19° WSW 18:03:37 19° WSW visible
15 Nov ? 14:55:54 10° SW 14:59:56 34° S 15:04:00 10° ESE visible
15 Nov ? 16:36:51 10° WSW 16:40:53 33° S 16:42:26 26° SSE visible
15 Nov ? 18:18:33 10° WSW 18:19:29 14° WSW 18:19:29 14° WSW visible
16 Nov ? 15:12:11 10° WSW 15:16:17 36° S 15:20:26 10° ESE visible
16 Nov ? 16:53:21 10° WSW 16:57:12 28° SSW 16:58:21 25° S visible
17 Nov ? 15:28:33 10° WSW 15:32:38 35° S 15:36:45 10° ESE visible
17 Nov ? 17:10:02 10° WSW 17:13:27 22° SSW 17:14:21 20° S visible
18 Nov ? 15:45:01 10° WSW 15:48:58 31° SSW 15:52:58 10° SE visible
18 Nov ? 17:27:00 10° WSW 17:29:38 15° SSW 17:30:27 15° SSW visible
19 Nov ? 16:01:35 10° WSW 16:05:16 25° SSW 16:08:59 10° SE visible
20 Nov ? 16:18:21 10° WSW 16:21:29 19° SSW 16:24:39 10° SSE visible
21 Nov ? 14:53:12 10° WSW 14:57:03 29° SSW 15:00:55 10° SE visible
21 Nov ? 16:35:38 10° WSW 16:37:38 13° SW 16:39:38 10° S visible
22 Nov ? 15:09:50 10° WSW 15:13:19 22° SSW 15:16:48 10° SSE visible
23 Nov ? 15:26:45 10° WSW 15:29:30 16° SSW 15:32:15 10° S visible
